Regional Weather Roundup
Issued by NWS

Home | Current Version | Previous Version | Graphics & Text | Print | Product List | Glossary On
Versions: 1 2 3 4 5 6 7 8 9 10 11 12 13 14 15 16 17 18 19 20 21 22 23 24 25 26 27 28 29 30 31 32 33 34 35 36 37 38 39 40 41 42 43 44 45 46 47 48 49 50
000
ASUS45 KTFX 310119
RWRMT
MONTANA HOURLY WEATHER ROUNDUP
NATIONAL WEATHER SERVICE GREAT FALLS MT
719 PM MDT THU OCT 30 2014

NOTE: "FAIR" INDICATES FEW OR NO CLOUDS BELOW 12000 FEET WITH NO
SIGNIFICANT WEATHER AND/OR OBSTRUCTIONS TO VISIBILITY.

* THESE STATIONS ARE NOT UNDER NWS QUALITY CONTROL. THEY DO NOT
   REPORT WEATHER SUCH AS PRECIPITATION OR FOG.

MTZ001>007-043-310200-
WEST OF THE DIVIDE
CITY           SKY/WX    TMP DP  RH WIND       PRES   REMARKS
KALISPELL      LGT RAIN  46  43  89 NW3       30.07F
MISSOULA       CLOUDY    48  41  77 NW7       30.07F
BUTTE          CLOUDY    48  28  46 S10       30.16F
MULLAN PASS    FOG       37  37 100 S10G18    30.04F WCI  30
* DEER LODGE   CLOUDY    52  30  43 SW3        N/A
* ESSEX        N/A       43  42  96 S2         N/A
* HAMILTON APT CLOUDY    48  41  77 S5         N/A
* LIBBY APT    CLOUDY    45  43  93 N/A        N/A
* LINCOLN      N/A       50  40  69 SW2        N/A
* LOOKOUT PASS N/A       42  40  93 S10G17     N/A
* POLSON       N/A       43  43 100 N/A        N/A
* RONAN APT    CLOUDY    46  43  89 N/A        N/A
* SEELEY LAKE  N/A       45  40  83 N2         N/A
* THOMP F APT  CLOUDY    51  26  38 E3         N/A
* YAAK HILL    N/A       47  41  80 NE2        N/A
$$

MTZ008-052>055-310200-
SOUTHWEST MONTANA
CITY           SKY/WX    TMP DP  RH WIND       PRES   REMARKS
BOZEMAN        CLOUDY    43  32  65 CALM      30.16F
DILLON         CLOUDY    46  32  58 NE7       30.16F
W YELLOWSTONE  CLOUDY    37  28  70 S5        30.28S WCI  33
* ENNIS APT    CLOUDY    55  28  35 SE8        N/A
* THREE FORKS  CLOUDY    48  43  83 N/A        N/A
* BOULDER HILL N/A       45  24  44 SW13       N/A
* MONIDA PASS  N/A       45  26  47 SE6        N/A
* RAYNOLDS PAS N/A       46  27  48 S11        N/A
* WHITEHALL    N/A       49  31  50 NW3        N/A
* WISE RIVER   N/A       47  30  52 SW3G9      N/A
$$

MTZ009>010-012-014-046-048-049-054-310200-
EAST SLOPES AND CENTRAL MONTANA
CITY           SKY/WX    TMP DP  RH WIND       PRES   REMARKS
CUT BANK       CLOUDY    48  34  59 SE13      30.10F
GREAT FALLS    CLOUDY    50  34  54 E9        30.11F
HELENA         CLOUDY    50  36  59 SW3       30.12F
MALMSTROM AFB  CLOUDY    48  34  59 E6        30.12F
* CONRAD       CLOUDY    48  37  66 E9         N/A
* DEARBORN     N/A       50  38  64 E1         N/A
* EAST GLACIER N/A       47  35  63 SW8        N/A
* MONARCH      N/A       44  23  43 E7         N/A
* ROGERS PASS  N/A       46  30  54 NW3        N/A
* SAINT MARY   N/A       49  30  48 S1G11      N/A
* SWEET GRASS  N/A       43  34  71 S20G28     N/A
* WHITE SULPH  N/A       49  30  48 NE7G12     N/A
$$

MTZ011-013-016-021-035-040-045-047-050-051-310200-
NORTH CENTRAL MONTANA
CITY           SKY/WX    TMP DP  RH WIND       PRES   REMARKS
HAVRE          MOCLDY    37  34  89 E25G32    30.20F WCI  25
LEWISTOWN      MOCLDY    48  32  54 E14       30.21S
* N BAR RANCH  CLEAR     43  32  65 SE7       30.27S
* FORT BENTON  CLOUDY    50  36  59 E16G30    30.14F
* CHESTER      N/A       35  32  89 E7G13      N/A   WCI  29
* DENTON       N/A       49  32  52 SE9        N/A
* GEYSER       N/A       45  31  58 S7         N/A
* JUDITH GAP   N/A       46  27  48 SE16       N/A
* LOMA         N/A       48  37  66 NE17       N/A
$$

MTZ017>020-022>027-061-062-310200-
NORTHEAST MONTANA
CITY           SKY/WX    TMP DP  RH WIND       PRES   REMARKS
GLASGOW        CLOUDY    36  28  73 SE20      30.39F WCI  25
GLENDIVE       CLOUDY    36  30  79 E12G17    30.45S WCI  28
JORDAN         CLEAR     34  30  85 E9        30.34F WCI  27
SIDNEY         CLOUDY    37  30  76 E8        30.49S WCI  31
WOLF POINT     CLOUDY    37  30  76 E12       30.45S WCI  29
* BEAVER HILL  N/A       35  31  85 E12        N/A   WCI  27
* CIRCLE       N/A       36  32  85 E8G13      N/A   WCI  30
* LINDSAY DVD  N/A       33  30  89 E16        N/A   WCI  23
* NAVAJO       N/A       32  28  85 SE12G17    N/A   WCI  23
* PLENTYWOOD A N/A       34  28  79 SE11       N/A   WCI  26
* POPLAR APT   N/A       37  32  82 N/A        N/A
* SCOBEY APT   CLEAR     34  25  70 SE8        N/A   WCI  27
$$

MTZ028>042-056>058-310200-
SOUTHCENTRAL AND SOUTHEAST MONTANA
CITY           SKY/WX    TMP DP  RH WIND       PRES   REMARKS
BAKER          CLOUDY    36  28  73 E12       30.43R WCI  28
BILLINGS       CLOUDY    52  30  43 E8        30.25F
LIVINGSTON     MOCLDY    52  28  40 E17       30.20S
MILES CITY     CLEAR     37  30  76 NE10      30.37S WCI  30
* FORSYTH APT  PTCLDY    43  34  71 E7         N/A
* LAUREL APT   CLOUDY    50  27  41 N/A        N/A
* ROUNDUP APT  MOCLDY    48  30  50 N/A        N/A
* ALZADA       N/A       37  31  79 E8         N/A   WCI  31
* HYSHAM       N/A      N/A N/A N/A N/A        N/A
* LAME DEER    N/A       43  33  68 NE8        N/A
* REED POINT   N/A       51  27  39 E4         N/A
* ROSCOE HILL  N/A       46  22  39 N/A        N/A
$$

REGIONAL REPORTS...DAKOTAS
CITY           SKY/WX    TMP DP  RH WIND       PRES   REMARKS
WILLISTON      CLOUDY    36  28  73 E8        30.50R WCI  30
DICKINSON      CLOUDY    34  28  79 E9        30.46R WCI  27
BEACH          N/A       36  32  85 SE10      30.45S WCI  29
CROSBY         CLOUDY    30  27  89 E6        30.53R WCI  24
TIOGA          CLOUDY    28  28 100 E7        30.54R WCI  21
BISMARCK       CLOUDY    34  25  70 NE10      30.53R WCI  26
GRAND FORKS    CLEAR     30  21  69 N10       30.50R WCI  21
FARGO          CLEAR     32  21  64 N15       30.46R WCI  22
BUFFALO SD     CLEAR     36  28  73 E14       30.38R WCI  27
RAPID CITY     CLEAR     34  28  79 E7        30.44R WCI  28
$$

REGIONAL REPORTS...WYOMING/IDAHO/WASHINGTON
CITY           SKY/WX    TMP DP  RH WIND       PRES   REMARKS
GILLETTE       CLEAR     39  27  62 CALM      30.34R
SHERIDAN       PTCLDY    46  27  48 S6        30.30R
CODY           PTCLDY    46  25  44 CALM      30.26S
YELLOWSTONE LA MOCLDY    32  28  85 CALM      30.35F
SALMON         CLOUDY    48  37  66 SE5       30.08S
MULLAN PASS    FOG       37  37 100 S10G18    30.04S WCI  30
SAND POINT     CLOUDY    48  45  89 E14G21    29.98F
SPOKANE        CLOUDY    52  45  77 NE14      29.91F
$$

REGIONAL REPORTS...ALBERTA
CITY           SKY/WX    TMP DP  RH WIND       PRES   REMARKS
CALGARY        CLOUDY    36  32  85 SE13      29.99F WCI  27
LETHBRIDGE     MOCLDY    50  37  61 SE13      30.05F
MEDICINE HAT   PTCLDY    41  34  76 E6        30.15F
EDMONTON       CLOUDY    34  32  92 SE23G32   29.99F WCI  22
WATERTON GATE  N/A       48  32  54 SW6        N/A
CARDSTON       N/A       50  36  59 S9G17      N/A
MILK RIVER     N/A       45  36  71 S15        N/A
$$

REGIONAL REPORTS...SASKATCHEWAN
CITY           SKY/WX    TMP DP  RH WIND       PRES   REMARKS
SWIFT CURRENT  CLOUDY    32  30  92 SE25G32   30.30F WCI  19
REGINA         FAIR      25  23  92 SE12      30.49F WCI  14
VAL MARIE      N/A       34  30  85 SE15       N/A   WCI  24
ASSINIBOIA     N/A       32  28  85 SE10       N/A   WCI  24
CORONACH       N/A       32  28  85 SE10       N/A   WCI  24

$$




USA.gov is the U.S. government's official web portal to all federal, state and local government web resources and services.